Back to catalog

FENGYUN 1C DEB

AlivePO
NORAD 38166·DEBRIS·🇨🇳 China

Launched May 10, 1999 from Taiyuan Satellite Launch Center

Loading…

Next Passes (next 24 hours)

TLE

FreshSource: Space-Track

Epoch: Sep 14, 2026, 14:04 UTC

1 38166U 99025ERP 26257.58664196  .00004172  00000-0  14711-2 0  9996
2 38166  99.0828  18.8501 0049241 320.0977  39.6591 14.34663718677234

Track FENGYUN 1C DEB in real time with AllMySat

Download on the App Store